{"data":{"norad_id":63937,"intl_designator":"2025-098M","name":"STARLINK-34035","alt_names":[],"object_type":"PAYLOAD","status":"ACTIVE","operator":null,"country":"US","launch_date":"2025-05-13","launch_site_code":"AFWTR","launch_vehicle":null,"mission":null,"orbit_class":"UNKNOWN","rcs_meters":null,"size_class":null,"mass_kg":null,"dimensions":null,"purposes":["comms"],"wikipedia_slug":null,"has_3d_model":false,"image_url":null,"decayed_at":null,"tle_current":{"epoch":"2026-09-19T22:53:58.818336Z","epoch_age_seconds":194288,"freshness":"STALE","line1":"1 63937U 25098M   26262.95415299  .00011698  00000+0  41064-3 0  9996","line2":"2 63937  70.0013 142.1685 0002599 261.4099  98.6782 15.29588945 75710","mean_motion":15.29588945,"eccentricity":0.0002599,"inclination_deg":70.0013,"raan_deg":142.1685,"arg_perigee_deg":261.4099,"mean_anomaly_deg":98.6782,"bstar":0.00041064,"rev_number":7571,"period_min":94.142939820999,"perigee_km":475.2585163215,"apogee_km":478.82183741804,"semimajor_km":6855.1771768698,"source":"CELESTRAK","updated_at":"2026-09-21T09:00:35.151139Z"}}}